IRIDIUM 45 [+]

Last updated on Fri Apr 12 2019 03:09:34 GMT+0000 (Coordinated Universal Time)

1 25104U 97082A 19101.49438087 .00001258 00000-0 96153-4 0 9997 2 25104 86.3859 9.6580 0216826 134.6641 227.2487 14.83893418115470
UTC large
Height (km)
Speed (km/s)
/
Latitude / Longitude
Inclination (degrees)
Orbital Period (minutes)
Azimuth
Elevation
Range (km)
Doppler Factor

Next 0 passes for location: London (51.5072 / 0.1276)

Sorry there are no passes over London.